This demonstration page uses our WeatherBlox Daily Observations layout. Learn more.

Left ArrowRight Arrow

39.08367, -84.50855

Hourly Observations for October 14, 2015

Temp ( °F °C ) Dew Point ( °F °C ) Humidity (%) Winds ( mph kmh ) Pressure ( in mb ) Visibility ( mi km ) Precip ( " mm )
12:53 am 00:53 Clear 49 9.4 47 8.3 93 93 SE 3 6 29.89 1012 10 16 0.00 0.00
1:53 am 01:53 Clear 48 8.9 47 8.3 96 96 Calm 29.88 1012 10 16 0.00 0.00
2:53 am 02:53 Clear 47 8.3 47 8.3 100 100 NE 3 6 29.88 1012 10 16 0.00 0.00
3:17 am 03:17 Clear with Mist and Fog 45 7.2 45 7.2 100 100 Calm 29.91 1013 2 3 0.00 0.00
3:33 am 03:33 Clear with Fog 44 6.7 44 6.7 100 100 Calm 29.91 1013 1 1 0.00 0.00
3:53 am 03:53 Clear with Mist and Fog 43 6.1 43 6.1 100 100 Calm 29.88 1012 1 1 0.00 0.00
4:14 am 04:14 Mostly Cloudy with Fog 45 7 45 7 100 100 Calm 29.91 1013 1 1 0.00 0.00
4:32 am 04:32 Mostly Clear with Mist and Fog 43 6 43 6 100 100 Calm 29.94 1014 1 2 0.00 0.00
4:39 am 04:39 Clear with Mist and Fog 44 6.7 44 6.7 100 100 Calm 29.94 1014 3 5 0.00 0.00
4:44 am 04:44 Clear with Mist and Fog 45 7 45 7 100 100 Calm 29.94 1014 2 3 0.00 0.00
4:53 am 04:53 Clear with Mist and Fog 44 6.7 44 6.7 100 100 Calm 29.90 1012 3 4 0.00 0.00
5:00 am 05:00 Clear with Mist and Fog 43 6 43 6 100 100 Calm 29.94 1014 6 10 0.00 0.00
5:03 am 05:03 Mostly Cloudy with Mist and Fog 43 6 43 6 100 100 Calm 29.91 1013 1 2 0.00 0.00
5:10 am 05:10 Mostly Cloudy with Fog 43 6 43 6 100 100 Calm 29.91 1013 1 1 0.00 0.00
5:19 am 05:19 Clear with Mist and Fog 43 6.1 43 6.1 100 100 NE 3 6 29.91 1013 2 3 0.00 0.00
5:27 am 05:27 Clear 43 6.1 43 6.1 100 100 NNE 3 6 29.91 1013 7 11 0.00 0.00
5:53 am 05:53 Clear 42 5.6 42 5.6 100 100 NE 3 6 29.89 1012 7 11 0.00 0.00
6:08 am 06:08 Clear with Mist and Fog 41 5 41 5 100 100 Calm 29.94 1014 2 3 0.00 0.00
6:32 am 06:32 Clear with Mist and Fog 41 5 41 5 100 100 Calm 29.94 1014 1 1 0.00 0.00
6:40 am 06:40 Mostly Cloudy with Fog 41 5 41 5 100 100 Calm 29.94 1014 1 1 0.00 0.00
6:53 am 06:53 Mostly Cloudy with Fog 42 5.6 42 5.6 100 100 Calm 29.92 1013 0 0 0.00 0.00
7:00 am 07:00 Cloudy with Fog 41 5 41 5 100 100 Calm 29.94 1014 1 1 0.00 0.00
7:53 am 07:53 Cloudy with Fog 43 6.1 43 6.1 100 100 Calm 29.92 1013 1 1 0.00 0.00
8:05 am 08:05 Mostly Cloudy with Mist and Fog 42 5.6 42 5.6 100 100 Calm 29.94 1014 1 1 0.00 0.00
8:23 am 08:23 Mostly Cloudy with Mist and Fog 43 6.1 43 6.1 100 100 Calm 29.94 1014 1 1 0.00 0.00
8:53 am 08:53 Partly Cloudy with Mist and Fog 46 7.8 46 7.8 100 100 Calm 29.93 1013 3 5 0.00 0.00
9:53 am 09:53 Sunny 50 10 49 9.4 96 96 SSE 5 7 29.96 1014 9 14 0.00 0.00
10:53 am 10:53 Sunny 57 13.9 47 8.3 69 69 W 6 9 29.95 1014 10 16 0.00 0.00
11:53 am 11:53 Sunny 60 15.6 45 7.2 58 58 W 12 19 29.96 1015 10 16 0.00 0.00
12:53 pm 12:53 Sunny 62 16.7 48 8.9 60 60 VRB 7 11 29.96 1015 10 16 0.00 0.00
1:53 pm 13:53 Sunny 64 17.8 44 6.7 48 48 WNW 9 15 29.96 1014 10 16 0.00 0.00
2:53 pm 14:53 Sunny 66 18.9 45 7.2 47 47 W 9 15 29.94 1014 10 16 0.00 0.00
3:53 pm 15:53 Sunny 66 18.9 41 5 40 40 WNW 12 19 29.95 1014 10 16 0.00 0.00
4:53 pm 16:53 Sunny 66 18.9 40 4.4 39 39 NW 13 20 29.96 1015 10 16 0.00 0.00
5:53 pm 17:53 Sunny 65 18.3 40 4.4 40 40 WNW 9 15 29.98 1015 10 16 0.00 0.00
6:53 pm 18:53 Sunny 63 17.2 38 3.3 40 40 WNW 8 13 29.99 1016 10 16 0.00 0.00
7:53 pm 19:53 Clear 60 15.6 39 3.9 46 46 WNW 3 6 30.02 1017 10 16 0.00 0.00
8:53 pm 20:53 Clear 56 13.3 40 4.4 55 55 NNW 6 9 30.04 1017 10 16 0.00 0.00
9:53 pm 21:53 Clear 48 8.9 44 6.7 86 86 Calm 30.06 1018 10 16 0.00 0.00
10:53 pm 22:53 Clear 45 7.2 44 6.7 97 97 Calm 30.06 1018 10 16 0.00 0.00
11:53 pm 23:53 Clear 44 6.7 43 6.1 96 96 Calm 30.08 1019 10 16 0.00 0.00

Powered by AerisWeather